[TLELIST] Archives

 

[TLELIST] Current TLEs

September 1st 2025 PDT

0 HST 1 20580U 90037B 25244.18646413 .00009416 00000-0 34628-3 0 9990 2 20580 28.4675 249.4831 0002297 188.7877 171.2678 15.26113477744303 0 ISS (ZARYA) 1 25544U 98067A 25244.20115740 .00011389 00000-0 20478-3 0 9993 2 25544 51.6340 290.3139 0003359 300.8027 59.2631 15.50340466526955 0 CXO 1 25867U 99040B 25246.12961281 .00001069 00000-0 00000-0 0 9995 2 25867 51.0271 126.4591 8300686 310.2477 0.7085 0.37798972 16233 ...Continue Reading

[TLELIST] Current TLEs

August 31st 2025 PDT

0 HST 1 20580U 90037B 25243.20554325 .00009086 00000-0 33405-3 0 9997 2 20580 28.4677 256.1400 0002349 178.9446 181.1154 15.26095736744152 0 ISS (ZARYA) 1 25544U 98067A 25243.10533927 .00011753 00000-0 21124-3 0 9996 2 25544 51.6340 295.7461 0003321 296.2458 63.8190 15.50315732526787 0 CXO 1 25867U 99040B 25246.12950857 .00001069 00000-0 00000-0 0 9992 2 25867 51.0271 126.4591 8300701 310.2477 0.6946 0.37798910 16238 ...Continue Reading

[TLELIST] Current TLEs

August 30th 2025 PDT

0 HST 1 20580U 90037B 25242.15921544 .00008574 00000-0 31496-3 0 9990 2 20580 28.4678 263.2408 0002388 168.5122 191.5528 15.26077032743999 0 ISS (ZARYA) 1 25544U 98067A 25242.13842622 .00011529 00000-0 20753-3 0 9991 2 25544 51.6342 300.5391 0003281 291.2034 68.8604 15.50293422526636 0 CXO 1 25867U 99040B 25243.48560161 .00000951 00000-0 00000-0 0 9992 2 25867 50.9786 126.5449 8304291 310.2548 0.7027 0.37802551 16224 ...Continue Reading

[TLELIST] Current TLEs

August 30th 2025 PDT

0 HST 1 20580U 90037B 25242.15921544 .00008574 00000-0 31496-3 0 9990 2 20580 28.4678 263.2408 0002388 168.5122 191.5528 15.26077032743999 0 ISS (ZARYA) 1 25544U 98067A 25242.13842622 .00011529 00000-0 20753-3 0 9991 2 25544 51.6342 300.5391 0003281 291.2034 68.8604 15.50293422526636 0 CXO 1 25867U 99040B 25243.48560161 .00000951 00000-0 00000-0 0 9992 2 25867 50.9786 126.5449 8304291 310.2548 0.7027 0.37802551 16224 ...Continue Reading

[TLELIST] Current TLEs

August 29th 2025 PDT

0 HST 1 20580U 90037B 25241.24366812 .00007988 00000-0 29304-3 0 9993 2 20580 28.4677 269.4538 0002444 159.5775 200.4918 15.26061816743858 0 ISS (ZARYA) 1 25544U 98067A 25241.17149947 .00012855 00000-0 23063-3 0 9994 2 25544 51.6343 305.3322 0003294 287.4359 72.6270 15.50271250526485 0 CXO 1 25867U 99040B 25243.48560161 .00000951 00000-0 00000-0 0 9992 2 25867 50.9786 126.5449 8304291 310.2548 0.7027 0.37802551 16224 ...Continue Reading

[TLELIST] Current TLEs

August 29th 2025 PDT

0 HST 1 20580U 90037B 25241.24366812 .00007988 00000-0 29304-3 0 9993 2 20580 28.4677 269.4538 0002444 159.5775 200.4918 15.26061816743858 0 ISS (ZARYA) 1 25544U 98067A 25241.17149947 .00012855 00000-0 23063-3 0 9994 2 25544 51.6343 305.3322 0003294 287.4359 72.6270 15.50271250526485 0 CXO 1 25867U 99040B 25243.48560161 .00000951 00000-0 00000-0 0 9992 2 25867 50.9786 126.5449 8304291 310.2548 0.7027 0.37802551 16224 ...Continue Reading

[TLELIST] Current TLEs

August 28th 2025 PDT

0 HST 1 20580U 90037B 25239.80493335 .00007515 00000-0 27540-3 0 9999 2 20580 28.4676 279.2178 0002483 145.4937 214.5819 15.26040432743636 0 ISS (ZARYA) 1 25544U 98067A 25239.68884940 .00012267 00000-0 22077-3 0 9997 2 25544 51.6343 312.6816 0003284 279.7275 80.3343 15.50231798526259 0 CXO 1 25867U 99040B 25240.84165294 .00000838 00000-0 00000-0 0 9991 2 25867 50.9502 126.6159 8307802 310.2637 0.7120 0.37807055 16216 ...Continue Reading

[TLELIST] Current TLEs

August 28th 2025 PDT

0 HST 1 20580U 90037B 25239.80493335 .00007515 00000-0 27540-3 0 9999 2 20580 28.4676 279.2178 0002483 145.4937 214.5819 15.26040432743636 0 ISS (ZARYA) 1 25544U 98067A 25239.68884940 .00012267 00000-0 22077-3 0 9997 2 25544 51.6343 312.6816 0003284 279.7275 80.3343 15.50231798526259 0 CXO 1 25867U 99040B 25240.84165294 .00000838 00000-0 00000-0 0 9991 2 25867 50.9502 126.6159 8307802 310.2637 0.7120 0.37807055 16216 ...Continue Reading

[TLELIST] Current TLEs

August 27th 2025 PDT

0 HST 1 20580U 90037B 25239.28175207 .00006442 00000-0 23501-3 0 9997 2 20580 28.4677 282.7682 0002467 140.7816 219.2958 15.26031468743558 0 ISS (ZARYA) 1 25544U 98067A 25239.23760054 .00012044 00000-0 21699-3 0 9999 2 25544 51.6344 314.9180 0003277 277.8648 82.1969 15.50220949526186 0 CXO 1 25867U 99040B 25240.84165294 .00000838 00000-0 00000-0 0 9991 2 25867 50.9502 126.6159 8307802 310.2637 0.7120 0.37807055 16216 ...Continue Reading

[TLELIST] Current TLEs

August 27th 2025 PDT

0 HST 1 20580U 90037B 25239.28175207 .00006442 00000-0 23501-3 0 9997 2 20580 28.4677 282.7682 0002467 140.7816 219.2958 15.26031468743558 0 ISS (ZARYA) 1 25544U 98067A 25239.23760054 .00012044 00000-0 21699-3 0 9999 2 25544 51.6344 314.9180 0003277 277.8648 82.1969 15.50220949526186 0 CXO 1 25867U 99040B 25240.84165294 .00000838 00000-0 00000-0 0 9991 2 25867 50.9502 126.6159 8307802 310.2637 0.7120 0.37807055 16216 ...Continue Reading
  • This mailing list is a public mailing list - anyone may join or leave, at any time.
  • This mailing list is announce-only.

International Space Station (ISS) / Hubble Space Telescope (HST) / Chandra X-Ray Observatory Orbital Data via EMAIL

Privacy Policy:

Private list